Simultaneous Nadir Overpasses (SNOs) Predictions

Prediction of SNOs between GOES-16 and NOAA-20 Satellite Orbit:

Table of predicted SNOs for the next 14.0 days since TLE Epoch: 4/19/2019
Index Date Time (GOES-16) GOES-16 Lat,Lon NOAA-20 Lat,Lon Distance(km) Time Diff (sec)
1 04/21/2019 06:32:41 0.00, -75.20 0.31, -76.51 150.44 80
2 04/22/2019 06:11:17 0.00, -75.20 -0.73, -71.99 366.24 80
3 04/23/2019 18:33:13 -0.00, -75.21 -0.45, -77.30 237.14 80
4 04/24/2019 18:17:08 -0.00, -75.22 0.52, -72.76 280.00 80
5 04/26/2019 06:38:55 -0.00, -75.23 0.65, -78.03 319.68 80
6 04/27/2019 06:17:31 -0.00, -75.24 -0.38, -73.50 197.68 80
7 04/28/2019 18:39:27 0.00, -75.26 -0.80, -78.81 404.73 80
8 04/29/2019 18:23:22 0.00, -75.27 0.24, -74.28 113.22 80
9 05/01/2019 06:45:10 -0.00, -75.29 0.94, -79.55 484.91 80
10 05/02/2019 06:23:44 -0.00, -75.31 -0.04, -75.01 33.35 80




NCC Satellite Simultaneous Nadir Overpasses (SNOs) Prediction Service
